Hourly Weather San Miguel de Tucumán

Today, 14 August, Friday

Time Temperature Precipitation Wind Pressure Humidity
00:00 +12°C° 0 mm 1 mps 715 mmHg 32%
01:00 +11°C° 0 mm 1 mps 714 mmHg 33%
02:00 +11°C° 0 mm 1 mps 713 mmHg 34%
03:00 +11°C° 0 mm 1 mps 713 mmHg 34%
04:00 +10°C° 0 mm 1 mps 713 mmHg 35%
05:00 +10°C° 0 mm 1 mps 712 mmHg 36%
06:00 +11°C° 0 mm 1 mps 712 mmHg 34%
07:00 +12°C° 0 mm 2 mps 712 mmHg 32%
08:00 +13°C° 0 mm 2 mps 713 mmHg 30%
09:00 +16°C° 0 mm 2 mps 713 mmHg 25%
10:00 +19°C° 0 mm 2 mps 713 mmHg 21%
11:00 +23°C° 0 mm 2 mps 714 mmHg 17%
12:00 +24°C° 0 mm 2 mps 713 mmHg 15%
13:00 +25°C° 0 mm 2 mps 713 mmHg 14%
14:00 +27°C° 0 mm 3 mps 713 mmHg 13%
15:00 +26°C° 0 mm 2 mps 713 mmHg 13%
16:00 +26°C° 0 mm 2 mps 713 mmHg 14%
17:00 +25°C° 0 mm 2 mps 713 mmHg 14%
18:00 +23°C° 0 mm 1 mps 714 mmHg 18%
19:00 +20°C° 0 mm 1 mps 715 mmHg 21%
20:00 +16°C° 0 mm 1 mps 716 mmHg 24%
21:00 +16°C° 0 mm 1 mps 716 mmHg 25%
22:00 +15°C° 0 mm 1 mps 717 mmHg 26%
23:00 +15°C° 0 mm 1 mps 717 mmHg 26%

Tomorrow, 15 August, Saturday

Time Temperature Precipitation Wind Pressure Humidity
00:00 +14°C° 0 mm 1 mps 717 mmHg 27%
01:00 +14°C° 0 mm 1 mps 717 mmHg 29%
02:00 +13°C° 0 mm 1 mps 718 mmHg 30%
03:00 +13°C° 0 mm 1 mps 717 mmHg 31%
04:00 +12°C° 0 mm 1 mps 717 mmHg 33%
05:00 +11°C° 0 mm 1 mps 717 mmHg 35%
06:00 +12°C° 0 mm 1 mps 717 mmHg 34%
07:00 +12°C° 0 mm 1 mps 718 mmHg 33%
08:00 +13°C° 0 mm 1 mps 718 mmHg 32%
09:00 +15°C° 0 mm 1 mps 718 mmHg 31%
10:00 +19°C° 0 mm 1 mps 718 mmHg 30%
11:00 +21°C° 0 mm 1 mps 718 mmHg 30%
12:00 +21°C° 0 mm 2 mps 717 mmHg 28%
13:00 +24°C° 0 mm 2 mps 716 mmHg 27%
14:00 +25°C° 0 mm 2 mps 716 mmHg 25%
15:00 +24°C° 0 mm 2 mps 716 mmHg 28%
16:00 +24°C° 0 mm 2 mps 715 mmHg 30%
17:00 +23°C° 0 mm 2 mps 715 mmHg 32%
18:00 +20°C° 0 mm 2 mps 716 mmHg 38%
19:00 +19°C° 0 mm 1 mps 717 mmHg 45%
20:00 +16°C° 0 mm 1 mps 718 mmHg 51%
21:00 +15°C° 0 mm 1 mps 719 mmHg 53%
22:00 +13°C° 0 mm 0 mps 719 mmHg 54%
23:00 +13°C° 0 mm 0 mps 720 mmHg 56%

Day after tomorrow, 16 August, Sunday

Time Temperature Precipitation Wind Pressure Humidity
00:00 +12°C° 0 mm 0 mps 720 mmHg 58%
01:00 +12°C° 0 mm 0 mps 720 mmHg 60%
02:00 +11°C° 0 mm 0 mps 720 mmHg 62%
03:00 +11°C° 0 mm 1 mps 720 mmHg 64%
04:00 +11°C° 0 mm 1 mps 720 mmHg 66%
05:00 +10°C° 0 mm 1 mps 720 mmHg 68%
06:00 +11°C° 0 mm 1 mps 720 mmHg 64%
07:00 +11°C° 0 mm 0 mps 720 mmHg 60%
08:00 +11°C° 0 mm 0 mps 720 mmHg 56%
09:00 +15°C° 0 mm 1 mps 720 mmHg 49%
10:00 +19°C° 0 mm 1 mps 720 mmHg 42%
11:00 +21°C° 0 mm 1 mps 720 mmHg 36%
12:00 +21°C° 0 mm 2 mps 719 mmHg 34%
13:00 +24°C° 0 mm 2 mps 718 mmHg 32%
14:00 +25°C° 0 mm 2 mps 717 mmHg 31%
15:00 +25°C° 0 mm 3 mps 717 mmHg 32%
16:00 +24°C° 0 mm 3 mps 716 mmHg 34%
17:00 +24°C° 0 mm 3 mps 716 mmHg 35%
18:00 +21°C° 0 mm 2 mps 717 mmHg 42%
19:00 +18°C° 0 mm 2 mps 717 mmHg 48%
20:00 +16°C° 0 mm 1 mps 717 mmHg 55%
21:00 +15°C° 0 mm 1 mps 718 mmHg 57%
22:00 +15°C° 0 mm 1 mps 718 mmHg 59%
23:00 +14°C° 0 mm 1 mps 718 mmHg 60%

17 August, Monday

Time Temperature Precipitation Wind Pressure Humidity
00:00 +14°C° 0 mm 1 mps 718 mmHg 62%
01:00 +13°C° 0 mm 1 mps 718 mmHg 64%
02:00 +11°C° 0 mm 0 mps 718 mmHg 66%
03:00 +12°C° 0 mm 1 mps 718 mmHg 68%
04:00 +12°C° 0 mm 1 mps 718 mmHg 69%
05:00 +11°C° 0 mm 1 mps 718 mmHg 70%
06:00 +12°C° 0 mm 1 mps 718 mmHg 66%
07:00 +13°C° 0 mm 1 mps 719 mmHg 62%
08:00 +14°C° 0 mm 1 mps 719 mmHg 58%
09:00 +18°C° 0 mm 1 mps 719 mmHg 51%
10:00 +21°C° 0 mm 1 mps 719 mmHg 43%
11:00 +23°C° 0 mm 2 mps 719 mmHg 36%
12:00 +24°C° 0 mm 2 mps 718 mmHg 33%
13:00 +26°C° 0 mm 2 mps 717 mmHg 30%
14:00 +27°C° 0 mm 3 mps 716 mmHg 27%
15:00 +26°C° 0 mm 3 mps 715 mmHg 28%
16:00 +26°C° 0 mm 3 mps 715 mmHg 28%
17:00 +25°C° 0 mm 3 mps 714 mmHg 29%
18:00 +22°C° 0 mm 3 mps 714 mmHg 34%
19:00 +19°C° 0 mm 2 mps 714 mmHg 40%
20:00 +17°C° 0 mm 2 mps 715 mmHg 45%
21:00 +16°C° 0 mm 2 mps 714 mmHg 47%
22:00 +16°C° 0 mm 2 mps 714 mmHg 49%
23:00 +15°C° 0 mm 1 mps 714 mmHg 50%

18 August, Tuesday

Time Temperature Precipitation Wind Pressure Humidity
00:00 +15°C° 0 mm 1 mps 713 mmHg 51%
01:00 +14°C° 0 mm 1 mps 713 mmHg 52%
02:00 +13°C° 0 mm 1 mps 712 mmHg 53%
03:00 +13°C° 0 mm 1 mps 712 mmHg 53%
04:00 +12°C° 0 mm 1 mps 712 mmHg 54%
05:00 +12°C° 0 mm 1 mps 711 mmHg 54%
06:00 +13°C° 0 mm 1 mps 712 mmHg 50%
07:00 +14°C° 0 mm 1 mps 712 mmHg 47%
08:00 +15°C° 0 mm 1 mps 712 mmHg 43%
09:00 +19°C° 0 mm 1 mps 713 mmHg 36%
10:00 +21°C° 0 mm 2 mps 713 mmHg 30%
11:00 +25°C° 0 mm 2 mps 713 mmHg 23%
12:00 +27°C° 0 mm 2 mps 712 mmHg 20%
13:00 +28°C° 0 mm 2 mps 712 mmHg 17%
14:00 +29°C° 0 mm 3 mps 711 mmHg 14%
15:00 +29°C° 0 mm 3 mps 711 mmHg 15%
16:00 +28°C° 0 mm 3 mps 711 mmHg 15%
17:00 +28°C° 0 mm 3 mps 711 mmHg 16%
18:00 +25°C° 0 mm 3 mps 712 mmHg 21%
19:00 +21°C° 0 mm 2 mps 713 mmHg 26%
20:00 +19°C° 0 mm 1 mps 714 mmHg 32%
21:00 +17°C° 0 mm 2 mps 715 mmHg 34%
22:00 +16°C° 0 mm 2 mps 716 mmHg 37%
23:00 +14°C° 0 mm 3 mps 717 mmHg 39%

19 August, Wednesday

Time Temperature Precipitation Wind Pressure Humidity
00:00 +13°C° 0 mm 3 mps 718 mmHg 42%
01:00 +11°C° 0 mm 3 mps 719 mmHg 46%
02:00 +10°C° 0 mm 3 mps 720 mmHg 49%
03:00 +9°C° 0 mm 2 mps 720 mmHg 49%
04:00 +8°C° 0 mm 2 mps 721 mmHg 48%
05:00 +8°C° 0 mm 1 mps 721 mmHg 48%
06:00 +9°C° 0 mm 1 mps 722 mmHg 43%
07:00 +10°C° 0 mm 1 mps 723 mmHg 39%
08:00 +10°C° 0 mm 2 mps 724 mmHg 34%
09:00 +12°C° 0 mm 2 mps 725 mmHg 31%
10:00 +12°C° 0 mm 3 mps 725 mmHg 29%
11:00 +13°C° 0 mm 4 mps 725 mmHg 26%
12:00 +14°C° 0 mm 4 mps 724 mmHg 24%
13:00 +14°C° 0 mm 4 mps 724 mmHg 22%
14:00 +15°C° 0 mm 5 mps 723 mmHg 20%
15:00 +14°C° 0 mm 5 mps 723 mmHg 20%
16:00 +14°C° 0 mm 5 mps 724 mmHg 21%
17:00 +13°C° 0 mm 5 mps 724 mmHg 21%
18:00 +11°C° 0 mm 4 mps 725 mmHg 24%
19:00 +9°C° 0 mm 3 mps 726 mmHg 27%
20:00 +7°C° 0 mm 2 mps 727 mmHg 30%
21:00 +8°C° 0 mm 1 mps 728 mmHg 31%
22:00 +7°C° 0 mm 1 mps 729 mmHg 32%
23:00 +6°C° 0 mm 1 mps 729 mmHg 32%
Show more